Regional Weather Roundup
Issued by NWS

Current Version | Previous Version | Text Only | Print | Product List | Glossary Off
Versions: 1 2 3 4 5 6 7 8 9 10 11 12 13 14 15 16 17 18 19 20 21 22 23 24 25 26 27 28 29 30 31 32 33 34 35 36 37 38 39 40 41 42 43 44 45 46 47 48 49 50

000
ASUS44 KMEG 110410
RWRTN
TENNESSEE HOURLY STATE WEATHER ROUNDUP
NATIONAL WEATHER SERVICE MEMPHIS TN
1100 PM CDT MON AUG 10 2020

TNZ002-004-019-021-049-052-054-088>092-110500-
WEST TENNESSEE

CITY           SKY/WX    TMP DP  RH WIND       PRES   REMARKS
MEMPHIS INTL   CLEAR     83  73  72 S6        29.98R
NWS MEMPHIS      N/A     81 N/A N/A MISG        N/A
JACKSON        CLEAR     77  73  87 CALM      29.99S
DYERSBURG      PTCLDY    81  75  82 CALM      29.98R
SOMERVILLE     CLEAR     79  72  78 CALM      29.98S
COVINGTON        N/A     75  73  94 SE3       29.96S
UNION CITY     CLOUDY    75  70  83 N22G32    30.02R
BOLIVAR        CLEAR     75  73  94 CALM      29.98S
PARIS          CLOUDY    75  68  78 N24G35    30.05R
HUNTINGDON     PTCLDY    77  75  94 CALM      29.99S
LEXINGTON      CLEAR     77  75  94 CALM      29.98S
SELMER         CLEAR     77  75  94 CALM      30.00R
SAVANNAH       CLEAR     77  77 100 CALM      29.99R
$$

TNZ008-025-027-028-033-062-065-066-110500-
NORTH MIDDLE TENNESSEE

CITY           SKY/WX    TMP DP  RH WIND       PRES   REMARKS
NASHVILLE      PTCLDY    79  69  71 S7        30.02S
DICKSON        PTCLDY    77  75  94 CALM      30.01S
PORTLAND       PTCLDY    75  72  88 S8        30.00F
CLARKSVILLE    MOCLDY    80  75  84 MISG      30.03R
LEBANON        MOCLDY    77  70  78 CALM      29.99F
SMYRNA         PTCLDY    74  72  93 SE3       30.03R
MURFREESBORO   MOCLDY    75  70  83 CALM      30.01R
COOKEVILLE     PTCLDY    70  68  94 CALM      30.05S
LIVINGSTON     PTCLDY    73  66  78 SW7       30.05R
GALLATIN       MOCLDY    73  72  94 CALM      30.04S
CROSSVILLE     MOCLDY    68  65  90 CALM      30.10F
ROCKWOOD       PTCLDY    72  70  94 CALM      30.09R FOG
$$

TNZ061-075-076-078-094-096-097-110500-
SOUTH MIDDLE TENNESSEE

CITY           SKY/WX    TMP DP  RH WIND       PRES   REMARKS
LAWRENCEBURG   CLOUDY    79  73  83 S5        30.04R
LEWISBURG        N/A     79  70  73 S5        30.02R
FAYETTEVILLE   MOCLDY    75  68  78 SW6       30.07R
TULLAHOMA      PTCLDY    73  70  88 CALM      30.04F
WINCHESTER     PTCLDY    73  70  88 CALM      30.04F
MCMINNVILLE    PTCLDY    72  68  88 CALM      30.05S
SHELBYVILLE    CLEAR     75  72  88 SE5       30.03S
$$

TNZ017-018-042-046-047-110500-
NORTHEAST TENNESSEE

CITY           SKY/WX    TMP DP  RH WIND       PRES   REMARKS
TRI CITIES     PTCLDY    71  66  84 CALM      30.09R
ELIZABETHTON   CLOUDY    70  68  94 CALM      30.09R
GREENEVILLE    MOCLDY    70  68  94 CALM      30.08S
$$

TNZ012-013-036-069-073-074-110500-
CENTRAL EAST TENNESSEE

CITY           SKY/WX    TMP DP  RH WIND       PRES   REMARKS
KNOXVILLE      CLOUDY    76  72  87 W5        30.05R
OAK RIDGE      MOCLDY    75  71  87 CALM      30.06F
DOWNTOWN KNOXV CLOUDY    73  72  94 CALM      30.05S
GATLINBURG     CLOUDY    72  72 100 CALM      30.05S
MORRISTOWN     CLOUDY    72  72 100 CALM      30.06S
JACKSBORO      CLOUDY    72  72 100 CALM      30.09S
$$

TNZ083-085-099-110500-
SOUTHEAST TENNESSEE

CITY           SKY/WX    TMP DP  RH WIND       PRES   REMARKS
CHATTANOOGA    CLOUDY    76  73  91 SE3       30.04F
DAYTON         CLOUDY    73  70  88 CALM      30.04F
$$

SKY/WX REPORTED AS FAIR MEANS FEW OR NO CLOUDS BELOW
12 THOUSAND FEET.





USA.gov is the U.S. government's official web portal to all federal, state and local government web resources and services.